Location: Berville
(49.1893°N, 2.0748°E)
Time: 07:30:38
(UTC+00:00)

Meteor 2-2 Rocket - Visible Passes

Search period start: 24 September 2023 00:00
Search period end: 04 October 2023 00:00
Orbit: 852 x 928 km, 81.3° (Epoch: 23 September)

Date Brightness Start Highest point End Pass type
(mag) Time Alt. Az. Time Alt. Az. Time Alt. Az.
24 Sep 5.4 02:34:25 26° SE 02:37:11 41° E 02:42:39 10° NNE visible
24 Sep 4.9 04:17:18 19° SW 04:21:01 36° WNW 04:26:25 10° N visible
25 Sep 5.1 02:34:53 34° SE 02:36:55 47° E 02:42:29 10° NNE visible
25 Sep 5.1 04:17:46 20° WSW 04:20:53 32° WNW 04:26:05 10° N visible
26 Sep 4.9 02:35:16 43° SE 02:36:39 53° E 02:42:19 10° NNE visible
26 Sep 5.2 04:18:09 21° WSW 04:20:44 29° WNW 04:25:46 10° N visible
27 Sep 4.7 02:35:37 55° SE 02:36:25 60° E 02:42:09 10° NNE visible
27 Sep 5.4 04:18:29 21° W 04:20:37 26° WNW 04:25:25 10° N visible
28 Sep 6.9 00:53:02 11° E 00:53:30 11° ENE 00:55:09 10° ENE visible
28 Sep 4.4 02:35:55 68° ESE 02:36:10 68° E 02:41:57 10° NNE visible
28 Sep 5.5 04:18:48 20° W 04:20:29 23° WNW 04:25:02 10° N visible
29 Sep 6.8 00:53:17 13° ENE 00:53:17 13° ENE 00:55:40 10° NE visible
29 Sep 4.3 02:36:10 76° ENE 02:36:10 76° ENE 02:41:45 10° NNE visible
29 Sep 5.6 04:19:02 19° WNW 04:20:23 21° WNW 04:24:38 10° NNW visible
30 Sep 6.7 00:53:31 15° ENE 00:53:31 15° ENE 00:55:56 10° NE visible
30 Sep 4.4 02:36:23 71° NNE 02:36:23 71° NNE 02:41:32 10° NNE visible
30 Sep 5.7 04:19:15 18° WNW 04:20:17 18° WNW 04:24:13 10° NNW visible
01 Oct 6.6 00:53:41 16° ENE 00:53:41 16° ENE 00:56:03 10° NE visible
01 Oct 4.6 02:36:33 61° N 02:36:33 61° N 02:41:18 10° N visible
01 Oct 5.9 04:19:26 16° WNW 04:20:11 16° WNW 04:23:44 10° NNW visible
02 Oct 6.6 00:53:50 17° ENE 00:53:50 17° ENE 00:56:07 10° NE visible
02 Oct 4.8 02:36:42 52° N 02:36:42 52° N 02:41:04 10° N visible
02 Oct 6.0 04:19:34 14° WNW 04:20:07 14° NW 04:23:12 10° NNW visible
03 Oct 6.6 00:53:57 18° NE 00:53:57 18° NE 00:56:07 10° NE visible
03 Oct 5.0 02:36:50 44° NNW 02:36:50 44° NNW 02:40:49 10° N visible
03 Oct 6.1 04:19:42 13° WNW 04:20:02 13° NW 04:22:33 10° NNW visible
